STARLINK-33972 (63893 NORAD) Tracking and Keplerian Element Data

This shows tracking and keplerian element data for the satellite.

Feedback or suggestion? Click here.




ElementValue
Catalog63893
NameSTARLINK-33972
Epoch Orbit3562
Epoch Day354.15723418
Epoch Year2025
RAAN265.442
Inclination43.0018
Eccentricity8.66E-05
Argument of Perigee312.6641
Mean Anonmoly47.4138
Mean Motion15.2758208
Decay Rate0.00017527
L11 63893U 25095D 25354.15723418 .00017527 00000+0 64487-3 0 9993
L22 63893 43.0018 265.4420 0000866 312.6641 47.4138 15.27582080 35624



Live tracking and technical data element details for STARLINK-33972 (NORAD 63893). STARLINK-33972 can be tracked NOW for your location showing map with azimuth and elevation plus other details from your city location.







IsCatalogInMostPopularTable: catalog: 63893, numindb: 8
Update: records affected: 1



GetName: 63893 STARLINK-33972

Hit Count: updated at: Mon, 20 Apr 2026 10:38:23 GMT